Regional Weather Roundup
Issued by NWS

Home | Current Version | Previous Version | Graphics & Text | Print | Product List | Glossary On
Versions: 1 2 3 4 5 6 7 8 9 10 11 12 13 14 15 16 17 18 19 20 21 22 23 24 25 26 27 28 29 30 31 32 33 34 35 36 37 38 39 40 41 42 43 44 45 46 47 48 49 50
000
ASUS45 KSLC 212210
RWRUT

UTAH REGIONAL WEATHER ROUNDUP
NATIONAL WEATHER SERVICE SALT LAKE CITY UT
300 PM MST SUN DEC 21 2014

UTZ001>011-023>025-212300-

NORTHERN UTAH

CITY           SKY/WX    TMP DP  RH WIND       PRES   REMARKS
BRIGHAM CITY   CLOUDY    45  40  84 CALM      29.89S
HILL AFB       CLOUDY    44  43  97 SW13      29.90F
LOGAN          CLOUDY    47  39  74 SW12      29.85F
OGDEN          CLOUDY    45  41  86 SW10      29.89F
PROVO AIRPORT  CLOUDY    41  37  87 VRB5      29.96
SALT LAKE CITY CLOUDY    43  39  86 SE10      29.92S
VERNAL         CLOUDY    35  28  75 NE3       29.82F
WENDOVER       CLOUDY    55  39  54 NW16G24   29.95R
HEBER CITY     MIX PCPN  37  36  93 SW6       29.91S WCI  33
WEST JORDAN    CLOUDY    39  39 100 S13       29.93S WCI  32

$$

UTZ012>022-026-027-212300-

SOUTHERN/CENTRAL UTAH

CITY           SKY/WX    TMP DP  RH WIND       PRES   REMARKS
BLANDING       MOSUNNY   39  33  78 CALM      30.06S
BRYCE CANYON   PTSUNNY   47  31  53 NW14G30   30.05R
CEDAR CITY     MOSUNNY   55  34  45 S5        30.03F
DELTA          CLOUDY    48  35  60 SE7       29.97F
MILFORD        PTSUNNY   54  36  50 S16       29.99F
MOAB/CYNLANDS  SUNNY     41  34  76 W12       29.93F
PRICE          CLOUDY    34  29  82 W3        29.93F
ST GEORGE      CLOUDY    52  34  50 CALM      30.08S
KANAB          PTSUNNY   50  36  57 S10       30.08F

$$

REGIONAL REPORTS     COLORADO/ARIZONA

CITY           SKY/WX    TMP DP  RH WIND       PRES   REMARKS
CRAIG, CO      CLOUDY    38  31  76 SW20      29.73S WCI  28
GRAND JUNCTION CLOUDY    34  32  92 CALM      29.93F
RIFLE          CLOUDY    34  30  85 CALM      29.87F
MONTROSE       CLOUDY    34  31  88 NW3       29.93F
CORTEZ         PTSUNNY   43  30  60 NW10      29.98F
PAGE, AZ       MOSUNNY   46  30  53 CALM      30.02R
GRAND CANYON   MOSUNNY   47  33  58 VRB6      30.11R
KINGMAN        CLOUDY    54  36  50 N3        30.08F
FLAGSTAFF      MOSUNNY   51  31  46 W9        30.07F

$$

REGIONAL REPORTS    NEVADA/IDAHO/WYOMING

CITY           SKY/WX    TMP DP  RH WIND       PRES   REMARKS
LAS VEGAS, NV  PTSUNNY   55  38  52 S5        30.04F
ELY            CLOUDY    50  36  58 CALM      30.10S
ELKO           CLOUDY    50  43  77 W20G28    30.04S
POCATELLO, ID  PTSUNNY   46  42  86 W26G41    29.81R
BURLEY         LGT RAIN  45  40  82 W23G41    29.88R
EVANSTON, WY   LGT RAIN  35  34  96 W18       29.82F WCI  24
ROCK SPRINGS   CLOUDY    37  31  78 W37G51    29.67S WCI  23
KEMMERER       LGT SNOW  34  32  93 W32G38    29.72R WCI  20

$$


USA.gov is the U.S. government's official web portal to all federal, state and local government web resources and services.